Volver al catálogo

FENGYUN 1C DEB

ActivoPO
NORAD 32137·DEBRIS·🇨🇳 China

Lanzado May 10, 1999 desde Taiyuan Satellite Launch Center

Loading…

Próximos Pases (próximas 24 horas)

TLE

ActualizadoSource: Space-Track

Época: Sep 12, 2026, 04:28 UTC

1 32137U 99025CSF 26255.18612931  .00006999  00000-0  60986-3 0  9997
2 32137  98.4757  44.0048 0170886 233.1149 125.4299 14.86631854707878

Sigue FENGYUN 1C DEB en tiempo real con AllMySat

Download on the App Store